STARLINK-35772

Last updated on Fri Dec 19 2025 00:02:09 GMT+0000 (Coordinated Universal Time)

1 66976U 25288T 25352.58336806 -.01786507 00000+0 -12431-1 0 9992 2 66976 43.0010 131.5215 0001533 279.8804 245.2445 15.76472778 2778
UTC large
Height (km)
Speed (km/s)
/
Latitude / Longitude
Inclination (degrees)
Orbital Period (minutes)
Azimuth
Elevation
Range (km)
Doppler Factor

Next 0 passes for location: London (51.5072 / 0.1276)

Sorry there are no passes over London.